O'Neill, NE

2:23 AM CDT on July 24, 2016 (GMT -0500)
The O'Neill Municipal-Baker

Weather History for KONL - April, 2014

Change the Weather History Date:

Tuesday, April 8, 2014

  Actual Average Record
Temperature  
Mean Temperature 44 °F -  
Max Temperature 58 °F 58 °F 80 °F (1977)
Min Temperature 30 °F 32 °F 10 °F (1957)
Degree Days  
Heating Degree Days 21    
Moisture  
Dew Point 25 °F    
Average Humidity 52    
Maximum Humidity 86    
Minimum Humidity 19    
Precipitation  
Precipitation 0.00 in - - ()
Sea Level Pressure  
Sea Level Pressure 30.06 in    
Wind  
Wind Speed 9 mph (NW)    
Max Wind Speed 14 mph    
Max Gust Speed 20 mph    
Visibility 10 miles    
Events      
Averages and records for this station are not official NWS values.
T = Trace of Precipitation, MM = Missing Value Source: NWS Daily Summary

Daily Weather History Graph

Daily Weather History Graph

Search for Another Location

Airport or City:

Trip Planner

Search our weather history database for the weather conditions in past years. The results will help you decide how hot, cold, wet, or windy it might be!

Date:

Astronomy

Apr. 08, 2014 Rise Set
Actual Time 7:05 AM CDT 8:08 PM CDT
Civil Twilight 6:36 AM CDT 8:37 PM CDT
Nautical Twilight 6:02 AM CDT 9:11 PM CDT
Astronomical Twilight 5:26 AM CDT 9:48 PM CDT
Moon 1:56 PM CDT (4/8) 3:26 AM CDT (4/8)
Length of Visible Light 14h 01m
Length of Day
13h 03m
Waxing Gibbous, 63% of the Moon is Illuminated
Apr 8
Waxing Gibbous
Apr 15
Full
Apr 22
Last Quarter
Apr 29
New
May 6
First Quarter

Hourly Weather History & Observations

Time (CDT) Temp. Windchill Dew Point Humidity Pressure Visibility Wind Dir Wind Speed Gust Speed Precip Events Conditions
12:15 AM 37.0 °F 30.4 °F 31.8 °F 81% 30.03 in 10.0 mi WNW 9.2 mph - N/A   Clear
12:35 AM 35.8 °F 29.4 °F 30.9 °F 82% 30.02 in 10.0 mi WNW 8.1 mph - N/A   Clear
1:15 AM 34.7 °F 28.8 °F 30.2 °F 84% 30.02 in 10.0 mi WNW 6.9 mph - N/A   Scattered Clouds
1:35 AM 35.8 °F 28.8 °F 30.7 °F 82% 30.02 in 10.0 mi West 9.2 mph - N/A   Clear
1:55 AM 34.7 °F 28.8 °F 30.0 °F 83% 30.02 in 10.0 mi West 6.9 mph - N/A   Scattered Clouds
2:15 AM 34.9 °F 29.9 °F 29.8 °F 82% 30.02 in 10.0 mi NW 5.8 mph - N/A   Scattered Clouds
2:35 AM 34.9 °F 29.0 °F 29.8 °F 82% 30.02 in 10.0 mi WNW 6.9 mph - N/A   Scattered Clouds
2:55 AM 34.9 °F 29.0 °F 29.5 °F 81% 30.02 in 10.0 mi WNW 6.9 mph - N/A   Clear
3:15 AM 36.0 °F 28.5 °F 30.0 °F 79% 30.01 in 10.0 mi WNW 10.4 mph - N/A   Scattered Clouds
3:35 AM 37.4 °F 30.8 °F 30.6 °F 76% 30.01 in 10.0 mi WNW 9.2 mph - N/A   Scattered Clouds
3:55 AM 37.0 °F 29.8 °F 30.4 °F 77% 30.02 in 10.0 mi WNW 10.4 mph - N/A   Scattered Clouds
4:15 AM 36.9 °F 29.1 °F 30.2 °F 77% 30.01 in 10.0 mi NW 11.5 mph - N/A   Scattered Clouds
4:35 AM 36.9 °F 28.7 °F 30.4 °F 77% 30.02 in 10.0 mi WNW 12.7 mph - N/A   Mostly Cloudy
4:55 AM 36.5 °F 29.2 °F 30.2 °F 78% 30.04 in 10.0 mi NW 10.4 mph - N/A   Mostly Cloudy
5:15 AM 36.1 °F 28.7 °F 30.0 °F 78% 30.04 in 10.0 mi NW 10.4 mph - N/A   Scattered Clouds
5:35 AM 35.1 °F 27.4 °F 29.7 °F 81% 30.05 in 10.0 mi WNW 10.4 mph - N/A   Clear
5:55 AM 34.9 °F 26.6 °F 29.3 °F 80% 30.06 in 10.0 mi NW 11.5 mph - N/A   Clear
6:15 AM 34.7 °F 26.4 °F 29.3 °F 81% 30.06 in 10.0 mi WNW 11.5 mph - N/A   Clear
6:35 AM 34.0 °F 26.0 °F 28.9 °F 82% 30.07 in 10.0 mi NW 10.4 mph - N/A   Clear
6:55 AM 32.0 °F 24.8 °F 27.9 °F 85% 30.08 in 10.0 mi NNW 8.1 mph - N/A   Clear
7:15 AM 30.9 °F 22.8 °F 27.0 °F 85% 30.09 in 10.0 mi NNW 9.2 mph - N/A   Clear
7:35 AM 32.0 °F 23.6 °F 28.2 °F 86% 30.10 in 10.0 mi NW 10.4 mph - N/A   Clear
7:55 AM 32.5 °F 24.8 °F 28.4 °F 85% 30.10 in 10.0 mi NW 9.2 mph - N/A   Clear
8:15 AM 34.2 °F 26.2 °F 29.5 °F 83% 30.11 in 10.0 mi NW 10.4 mph - N/A   Clear
8:35 AM 35.8 °F 28.3 °F 30.6 °F 81% 30.11 in 10.0 mi NNW 10.4 mph - N/A   Clear
8:55 AM 37.8 °F 30.2 °F 31.6 °F 79% 30.12 in 10.0 mi NNW 11.5 mph - N/A   Clear
9:15 AM 38.8 °F 30.8 °F 31.8 °F 76% 30.13 in 10.0 mi North 13.8 mph - N/A   Clear
9:35 AM 40.1 °F 32.7 °F 31.8 °F 72% 30.13 in 10.0 mi North 12.7 mph - N/A   Clear
9:55 AM 41.0 °F 34.7 °F 32.0 °F 70% 30.13 in 10.0 mi North 10.4 mph - N/A   Clear
10:15 AM 42.3 °F 35.5 °F 32.0 °F 67% 30.14 in 10.0 mi North 12.7 mph - N/A   Clear
10:35 AM 43.7 °F 37.3 °F 29.3 °F 57% 30.14 in 10.0 mi North 12.7 mph 17.3 mph N/A   Clear
10:55 AM 44.6 °F 38.4 °F 27.0 °F 50% 30.15 in 10.0 mi North 12.7 mph - N/A   Clear
11:15 AM 46.2 °F 40.5 °F 26.6 °F 46% 30.14 in 10.0 mi North 12.7 mph 17.3 mph N/A   Clear
11:35 AM 47.3 °F - 26.4 °F 44% 30.14 in 10.0 mi North 11.5 mph - N/A   Clear
11:55 AM 49.1 °F - 25.0 °F 39% 30.14 in 10.0 mi North 13.8 mph - N/A   Clear
12:15 PM 50.2 °F - 23.4 °F 35% 30.14 in 10.0 mi NNW 13.8 mph 18.4 mph N/A   Clear
12:35 PM 50.9 °F - 21.2 °F 31% 30.14 in 10.0 mi North 13.8 mph 18.4 mph N/A   Clear
12:55 PM 51.6 °F - 21.0 °F 30% 30.14 in 10.0 mi NNW 9.2 mph 17.3 mph N/A   Clear
1:15 PM 52.5 °F - 20.1 °F 28% 30.13 in 10.0 mi North 8.1 mph 16.1 mph N/A   Clear
1:35 PM 53.6 °F - 18.9 °F 26% 30.13 in 10.0 mi NNW 9.2 mph 18.4 mph N/A   Clear
1:55 PM 54.1 °F - 19.4 °F 26% 30.11 in 10.0 mi North 6.9 mph 18.4 mph N/A   Clear
2:15 PM 54.5 °F - 18.0 °F 24% 30.11 in 10.0 mi North 6.9 mph 10.4 mph N/A   Clear
2:35 PM 55.4 °F - 18.1 °F 23% 30.10 in 10.0 mi NW 11.5 mph 19.6 mph N/A   Clear
2:55 PM 55.6 °F - 18.0 °F 23% 30.10 in 10.0 mi North 9.2 mph 17.3 mph N/A   Clear
3:15 PM 56.5 °F - 18.3 °F 23% 30.09 in 10.0 mi WNW 6.9 mph - N/A   Clear
3:35 PM 57.6 °F - 19.2 °F 23% 30.09 in 10.0 mi NNW 9.2 mph - N/A   Clear
3:55 PM 56.5 °F - 17.6 °F 22% 30.08 in 10.0 mi NW 9.2 mph - N/A   Clear
4:15 PM 56.3 °F - 18.0 °F 22% 30.07 in 10.0 mi NW 8.1 mph - N/A   Clear
4:35 PM 57.2 °F - 16.9 °F 21% 30.07 in 10.0 mi WNW 5.8 mph - N/A   Clear
4:55 PM 57.6 °F - 17.1 °F 21% 30.06 in 10.0 mi West 4.6 mph - N/A   Clear
5:15 PM 57.4 °F - 17.1 °F 21% 30.05 in 10.0 mi Calm Calm - N/A   Clear
5:35 PM 58.1 °F - 16.7 °F 20% 30.05 in 10.0 mi WSW 8.1 mph - N/A   Clear
5:55 PM 58.3 °F - 16.7 °F 20% 30.04 in 10.0 mi SW 5.8 mph - N/A   Clear
6:15 PM 58.3 °F - 16.2 °F 19% 30.04 in 10.0 mi Calm Calm - N/A   Clear
6:35 PM 57.4 °F - 16.5 °F 20% 30.04 in 10.0 mi Calm Calm - N/A   Clear
6:55 PM 56.7 °F - 15.8 °F 20% 30.04 in 10.0 mi Calm Calm - N/A   Clear
7:15 PM 53.8 °F - 23.5 °F 31% 30.03 in 10.0 mi Calm Calm - N/A   Clear
7:35 PM 53.4 °F - 21.4 °F 29% 30.03 in 10.0 mi ESE 4.6 mph - N/A   Clear
7:55 PM 52.0 °F - 19.6 °F 28% 30.02 in 10.0 mi ESE 4.6 mph - N/A   Clear
8:15 PM 51.3 °F - 20.3 °F 30% 30.02 in 10.0 mi SE 5.8 mph - N/A   Clear
8:35 PM 49.8 °F - 21.2 °F 32% 30.02 in 10.0 mi SE 6.9 mph - N/A   Clear
8:55 PM 49.8 °F - 20.5 °F 32% 30.01 in 10.0 mi SE 6.9 mph - N/A   Clear
9:15 PM 48.4 °F - 21.9 °F 35% 30.01 in 10.0 mi SE 6.9 mph - N/A   Clear
9:35 PM 48.2 °F - 21.9 °F 36% 30.01 in 10.0 mi SSE 8.1 mph - N/A   Clear
9:55 PM 46.9 °F - 22.3 °F 38% 30.01 in 10.0 mi SSE 6.9 mph - N/A   Clear
10:15 PM 46.2 °F 42.2 °F 22.6 °F 39% 30.00 in 10.0 mi SSE 8.1 mph - N/A   Clear
10:35 PM 45.5 °F 40.8 °F 23.0 °F 41% 30.00 in 10.0 mi SSE 9.2 mph - N/A   Clear
10:55 PM 43.9 °F 39.3 °F 23.7 °F 45% 29.99 in 10.0 mi South 8.1 mph - N/A   Clear
11:15 PM 43.3 °F 38.1 °F 23.7 °F 46% 29.99 in 10.0 mi South 9.2 mph - N/A   Clear
11:35 PM 43.2 °F 37.4 °F 23.7 °F 46% 29.98 in 10.0 mi South 10.4 mph - N/A   Clear
11:55 PM 42.1 °F 36.6 °F 23.9 °F 49% 29.98 in 10.0 mi South 9.2 mph - N/A   Clear